FENGYUN 1C DEB, 29850

Orbit data source: Space-Track

FENGYUN 1C DEB, 29850 is space debris in SSO originally from a launch on Mon, 10 May 1999 UTC launched from the Taiyaun Space Center, China (TSC). Fengyun 1C debris stems from the Chinese weather satellite Fengyun-1C, which was intentionally destroyed by a Chinese anti-satellite missile in 2007. This event dramatically increased the amount of space debris, with thousands of trackable fragments posing hazards to satellites and human spaceflight. The Fengyun 1C debris cloud has become a focal point in discussions about space sustainability and the need for international regulations to prevent the creation of new debris.

Loading next visibility...
Identifier
29850, 1999-025EU
Orbit
SSO
Country
Flag of CNCN / PRC
Related business
Manufacturer
Unknown
Mission
Spacecraft
Bus & Motor
Unknown
Mass
Unknown
Launch date (UTC)
1999-05-10 (27 years ago)
Launch vehicle
Unknown
Launch site
Taiyaun Space Center, China (TSC)
Object type
Payload
Rocket body
Debris
Shape & HBR
Unknown shape, 0.1 m
Radar Cross Section
Small (<0.1 m²)

Expand to show TLE details & history
Last TLE update: 11 hours ago

TLE from 11 hours ago
0 FENGYUN 1C DEB
1 29850U 99025EU  25354.74797497  .00001223  00000-0  82088-3 0  9999
2 29850  98.1251 280.4976 0101977 266.9471 155.3735 13.99884997961325
Epoch: 2025-12-20T17:57Z
TLE epoch observation values (Epoch: 2025-12-20T17:57:05.037Z)
Latitude
61.79494°
Longitude
-93.70018°
Altitude
972.31 km
Speed
7.337 km/s
True Right ascension
17h 40m 33s
True Declination
61° 39' 20"
Sunlit
Object was in daylight at epoch
Visualization orbit readout
Latitude
Unknown
Longitude
Unknown
Altitude
Unknown
Speed
Unknown
Apparent Right ascension
Unknown
Apparent Declination
Unknown
Sunlit
N/A
Visualization observer readout
Local Sidereal Time
03:27:10
Azimuth
Unknown
Elevation
Unknown
Doppler factor
Unknown
Orbital elements
Apogee altitude
965.484 km
Perigee altitude
817.22 km
Semi-major axis
7,269.489 km
Eccentricity
0.0102
Inclination
98.1251°
RAAN
280.4976°
Arg. of periapsis
266.9471°
True anomaly
155.85486°
Mean anomaly
155.3735°
Eccentric anomaly
155.61473°
Mean motion
3.50177 °/min
Orbital period
102.81 mins
BSTAR
0.00082088
Loading maneuver chart data...
Computing Atmospheric mass density...

Documentation

Showing up to 5 results
|